This is the latest recevied weather packets stored in our database for station/object KG7MRB. If no packets are shown the sender has not sent any weather packets the latest 10 day(s).
| Time | Temp. | Humidity | Pressure | Rain* | Wind** | Luminosity | Snow |
|---|---|---|---|---|---|---|---|
| 1777769752 | 25° C | 47% | 1032.2 hPa | 0 mm | - | 54 W/m² | - |
| 1777769449 | 25° C | 47% | 1032.1 hPa | 0 mm | - | 59 W/m² | - |
| 1777769145 | 25° C | 47% | 1032.2 hPa | 0 mm | - | 193 W/m² | - |
| 1777768844 | 25° C | 47% | 1032 hPa | 0 mm | - | 181 W/m² | - |
| 1777768540 | 25° C | 47% | 1032.3 hPa | 0 mm | - | 65 W/m² | - |
| 1777768237 | 25° C | 47% | 1032.2 hPa | 0 mm | - | 198 W/m² | - |
| 1777767934 | 25° C | 47% | 1031.9 hPa | 0 mm | - | 58 W/m² | - |
| 1777767631 | 25° C | 48% | 1032.2 hPa | 0 mm | - | 67 W/m² | - |
| 1777767327 | 25.56° C | 47% | 1032.2 hPa | 0 mm | - | 68 W/m² | - |
| 1777767025 | 25.56° C | 47% | 1032 hPa | 0 mm | - | 62 W/m² | - |
| 1777766722 | 26.11° C | 46% | 1032.2 hPa | 0 mm | - | 332 W/m² | - |
| 1777766419 | 25.56° C | 47% | 1032.3 hPa | 0 mm | - | 362 W/m² | - |
| 1777766115 | 26.11° C | 46% | 1032.3 hPa | 0 mm | - | 376 W/m² | - |
| 1777765813 | 26.11° C | 46% | 1032.2 hPa | 0 mm | - | 386 W/m² | - |
| 1777765509 | 26.11° C | 47% | 1032.1 hPa | 0 mm | - | 399 W/m² | - |
| 1777765207 | 26.67° C | 46% | 1032.2 hPa | 0 mm | - | 410 W/m² | - |
| 1777764907 | 26.67° C | 45% | 1032.5 hPa | 0 mm | - | 421 W/m² | - |
| 1777764604 | 26.11° C | 46% | 1032.6 hPa | 0 mm | - | 437 W/m² | - |
| 1777764300 | 27.22° C | 43% | 1032.4 hPa | 0 mm | - | 446 W/m² | - |
| 1777763997 | 26.67° C | 45% | 1032.5 hPa | 0 mm | - | 460 W/m² | - |
| 1777763694 | 26.67° C | 43% | 1032.3 hPa | 0 mm | - | 468 W/m² | - |
| 1777763393 | 26.11° C | 43% | 1032.5 hPa | 0 mm | - | 480 W/m² | - |
| 1777763090 | 27.22° C | 44% | 1032.5 hPa | 0 mm | - | 489 W/m² | - |
| 1777762788 | 26.67° C | 42% | 1033 hPa | 0 mm | - | 499 W/m² | - |
| 1777762484 | 26.67° C | 44% | 1032.7 hPa | 0 mm | - | 506 W/m² | - |
* Rain latest hour (hover to see other rain measurements)
** Current wind speed in m/s (hover to see current wind gust speed)